Back to catalog

THORAD AGENA D DEB

AlivePO
NORAD 42497·DEBRIS·🇺🇸 United States

Launched Apr 8, 1970 from Vandenberg Space Force Base

Loading…

Next Passes (next 24 hours)

TLE

FreshSource: Space-Track

Epoch: Sep 14, 2026, 12:29 UTC

1 42497U 70025RB  26257.52059261  .00001157  00000-0  81470-3 0  9999
2 42497  99.9857 146.9534 0032172 279.3054  80.4470 14.00227361650585

Track THORAD AGENA D DEB in real time with AllMySat

Download on the App Store